Year,Month,Day,Hour,Minute,Value (Times are PST for temperature in C)
2015,08,16,08,35,13.80
2015,08,16,08,36,13.70
2015,08,16,08,37,13.70
2015,08,16,08,38,13.80
2015,08,16,08,39,13.80
2015,08,16,08,40,13.80
2015,08,16,08,41,13.70
2015,08,16,08,42,13.60
2015,08,16,08,43,13.60
2015,08,16,08,44,13.60
2015,08,16,08,45,13.60
2015,08,16,08,46,13.60
2015,08,16,08,47,13.50
2015,08,16,08,48,13.50
2015,08,16,08,49,13.50
2015,08,16,08,50,13.50
2015,08,16,08,51,13.50
2015,08,16,08,52,13.40
2015,08,16,08,53,13.40
2015,08,16,08,54,13.40
2015,08,16,08,55,13.40
2015,08,16,08,56,13.40
2015,08,16,08,57,13.40
2015,08,16,08,58,13.30
2015,08,16,08,59,13.30
2015,08,16,09,00,13.40
2015,08,16,09,01,13.40
2015,08,16,09,02,13.40
2015,08,16,09,03,13.50
2015,08,16,09,04,13.50
2015,08,16,09,05,13.50
2015,08,16,09,06,13.50
2015,08,16,09,07,13.50
2015,08,16,09,08,13.50
2015,08,16,09,09,13.50
2015,08,16,09,10,13.50
2015,08,16,09,11,13.50
2015,08,16,09,12,13.60
2015,08,16,09,13,13.70
2015,08,16,09,14,13.70
2015,08,16,09,15,13.70
2015,08,16,09,16,13.80
2015,08,16,09,17,13.80
2015,08,16,09,18,13.80
2015,08,16,09,19,13.70
2015,08,16,09,20,13.70
2015,08,16,09,21,13.70
2015,08,16,09,22,13.70
2015,08,16,09,23,13.80
2015,08,16,09,24,13.80
2015,08,16,09,25,13.70
2015,08,16,09,26,13.70
2015,08,16,09,27,13.70
2015,08,16,09,28,13.70
2015,08,16,09,29,13.70
2015,08,16,09,30,13.70
2015,08,16,09,31,13.80
2015,08,16,09,32,13.80
2015,08,16,09,33,13.80
2015,08,16,09,34,13.80
2015,08,16,09,35,13.80
2015,08,16,09,36,13.80
2015,08,16,09,37,13.80
2015,08,16,09,38,13.90
2015,08,16,09,39,13.90
2015,08,16,09,40,13.90
2015,08,16,09,41,14.00
2015,08,16,09,42,14.00
2015,08,16,09,43,14.00
2015,08,16,09,44,14.10
2015,08,16,09,45,14.20
2015,08,16,09,46,14.20
2015,08,16,09,47,14.20
2015,08,16,09,48,14.30
2015,08,16,09,49,14.30
2015,08,16,09,50,14.40
2015,08,16,09,51,14.50
2015,08,16,09,52,14.50
2015,08,16,09,53,14.60
2015,08,16,09,54,14.60
2015,08,16,09,55,14.70
2015,08,16,09,56,14.70
2015,08,16,09,57,14.80
2015,08,16,09,58,14.80
2015,08,16,09,59,14.80
2015,08,16,10,00,14.80
2015,08,16,10,01,14.80
2015,08,16,10,02,14.80
2015,08,16,10,03,14.80
2015,08,16,10,04,14.70
2015,08,16,10,05,14.70
2015,08,16,10,06,14.70
2015,08,16,10,07,14.70
2015,08,16,10,08,14.70
2015,08,16,10,09,14.70
2015,08,16,10,10,14.70
2015,08,16,10,11,14.70
2015,08,16,10,12,14.70
2015,08,16,10,13,14.70
2015,08,16,10,14,14.80
2015,08,16,10,15,14.80
2015,08,16,10,16,14.70
2015,08,16,10,17,14.70
2015,08,16,10,18,14.80
2015,08,16,10,19,14.70
2015,08,16,10,20,14.70
2015,08,16,10,21,14.60
2015,08,16,10,22,14.50
2015,08,16,10,23,14.50
2015,08,16,10,24,14.30
2015,08,16,10,25,14.30
2015,08,16,10,26,14.20
2015,08,16,10,27,14.20
2015,08,16,10,28,14.10
2015,08,16,10,29,14.00
2015,08,16,10,30,14.00
2015,08,16,10,31,14.00
2015,08,16,10,32,14.00
2015,08,16,10,33,14.00
2015,08,16,10,34,14.00
2015,08,16,10,35,14.10
2015,08,16,10,36,14.10
2015,08,16,10,37,14.10
2015,08,16,10,38,14.00
2015,08,16,10,39,14.10
2015,08,16,10,40,14.20
2015,08,16,10,41,14.30
2015,08,16,10,42,14.30
2015,08,16,10,43,14.20
2015,08,16,10,44,14.20
2015,08,16,10,45,14.40
2015,08,16,10,46,14.30
2015,08,16,10,47,14.30
2015,08,16,10,48,14.30
2015,08,16,10,49,14.20
2015,08,16,10,50,14.20
2015,08,16,10,51,14.20
2015,08,16,10,52,14.00
2015,08,16,10,53,14.00
2015,08,16,10,54,14.00
2015,08,16,10,55,14.00
2015,08,16,10,56,13.90
2015,08,16,10,57,13.80
2015,08,16,10,58,13.90
2015,08,16,10,59,13.90
2015,08,16,11,00,13.90
2015,08,16,11,01,13.90
2015,08,16,11,02,14.00
2015,08,16,11,03,14.00
2015,08,16,11,04,14.00
2015,08,16,11,05,13.90
2015,08,16,11,06,13.80
2015,08,16,11,07,13.80
2015,08,16,11,08,13.80
2015,08,16,11,09,13.70
2015,08,16,11,10,13.70
2015,08,16,11,11,13.70
2015,08,16,11,12,13.70
2015,08,16,11,13,13.60
2015,08,16,11,14,13.50
2015,08,16,11,15,13.50
2015,08,16,11,16,13.50
2015,08,16,11,17,13.40
2015,08,16,11,18,13.30
2015,08,16,11,19,13.30
2015,08,16,11,20,13.30
2015,08,16,11,21,13.30
2015,08,16,11,22,13.30
2015,08,16,11,23,13.40
2015,08,16,11,24,13.50
2015,08,16,11,25,13.50
2015,08,16,11,26,13.50
2015,08,16,11,27,13.50
2015,08,16,11,28,13.50
2015,08,16,11,29,13.50
2015,08,16,11,30,13.50
2015,08,16,11,31,13.40
2015,08,16,11,32,13.40
2015,08,16,11,33,13.30
2015,08,16,11,34,13.30
2015,08,16,11,35,13.30
2015,08,16,11,36,13.20
2015,08,16,11,37,13.20
2015,08,16,11,38,13.20
2015,08,16,11,39,13.20
2015,08,16,11,40,13.20
2015,08,16,11,41,13.20
2015,08,16,11,42,13.20
2015,08,16,11,43,13.20
2015,08,16,11,44,13.20
2015,08,16,11,45,13.20
2015,08,16,11,46,13.20
2015,08,16,11,47,13.20
2015,08,16,11,48,13.20
2015,08,16,11,49,13.20
2015,08,16,11,50,13.10
2015,08,16,11,51,13.20
2015,08,16,11,52,13.20
2015,08,16,11,53,13.10
2015,08,16,11,54,13.10
2015,08,16,11,55,13.00
2015,08,16,11,56,13.00
2015,08,16,11,57,13.10
2015,08,16,11,58,13.10
2015,08,16,11,59,13.10
2015,08,16,12,00,13.20
2015,08,16,12,01,13.30
2015,08,16,12,02,13.30
2015,08,16,12,03,13.30
2015,08,16,12,04,13.30
2015,08,16,12,05,13.40
2015,08,16,12,06,13.40
2015,08,16,12,07,13.40
2015,08,16,12,08,13.40
2015,08,16,12,09,13.40
2015,08,16,12,10,13.40
2015,08,16,12,11,13.40
2015,08,16,12,12,13.30
2015,08,16,12,13,13.30
2015,08,16,12,14,13.40
2015,08,16,12,15,13.50
2015,08,16,12,16,13.60
2015,08,16,12,17,13.70
2015,08,16,12,18,13.70
2015,08,16,12,19,13.60
2015,08,16,12,20,13.70
2015,08,16,12,21,13.70
2015,08,16,12,22,13.80
2015,08,16,12,23,13.90
2015,08,16,12,24,14.00
2015,08,16,12,25,14.10
2015,08,16,12,26,14.10
2015,08,16,12,27,14.10
2015,08,16,12,28,14.20
2015,08,16,12,29,14.20
2015,08,16,12,30,14.20
2015,08,16,12,31,14.40
2015,08,16,12,32,14.50
2015,08,16,12,33,14.60
2015,08,16,12,34,14.70
2015,08,16,12,35,14.90
2015,08,16,12,36,15.10
2015,08,16,12,37,15.30
2015,08,16,12,38,15.20
2015,08,16,12,39,15.00
2015,08,16,12,40,15.00
2015,08,16,12,41,15.00
2015,08,16,12,42,15.00
2015,08,16,12,43,15.00
2015,08,16,12,44,15.00
2015,08,16,12,45,15.10
2015,08,16,12,46,15.20
2015,08,16,12,47,15.30
2015,08,16,12,48,15.30
2015,08,16,12,49,15.30
2015,08,16,12,50,15.40
2015,08,16,12,51,15.50
2015,08,16,12,52,15.70
2015,08,16,12,53,15.80
2015,08,16,12,54,16.00
2015,08,16,12,55,16.10
2015,08,16,12,56,16.20
2015,08,16,12,57,16.40
2015,08,16,12,58,16.50
2015,08,16,12,59,16.60
2015,08,16,13,00,16.70
2015,08,16,13,01,16.80
2015,08,16,13,02,16.90
2015,08,16,13,03,17.00
2015,08,16,13,04,17.10
2015,08,16,13,05,17.10
2015,08,16,13,06,17.20
2015,08,16,13,07,17.30
2015,08,16,13,08,17.30
2015,08,16,13,09,17.40
2015,08,16,13,10,17.50
2015,08,16,13,11,17.50
2015,08,16,13,12,17.60
2015,08,16,13,13,17.70
2015,08,16,13,14,17.80
2015,08,16,13,15,17.90
2015,08,16,13,16,17.90
2015,08,16,13,17,17.90
2015,08,16,13,18,17.90
2015,08,16,13,19,18.00
2015,08,16,13,20,18.00
2015,08,16,13,21,18.00
2015,08,16,13,22,18.10
2015,08,16,13,23,18.10
2015,08,16,13,24,18.20
2015,08,16,13,25,18.30
2015,08,16,13,26,18.30
2015,08,16,13,27,18.30
2015,08,16,13,28,18.20
2015,08,16,13,29,18.20
2015,08,16,13,30,18.20
2015,08,16,13,31,18.20
2015,08,16,13,32,18.20
2015,08,16,13,33,18.30
2015,08,16,13,34,18.40
2015,08,16,13,35,18.50
2015,08,16,13,36,18.60
2015,08,16,13,37,18.60
2015,08,16,13,38,18.50
2015,08,16,13,39,18.60
2015,08,16,13,40,18.60
2015,08,16,13,41,18.70
2015,08,16,13,42,18.70
2015,08,16,13,43,18.80
2015,08,16,13,44,18.80
2015,08,16,13,45,18.80
2015,08,16,13,46,18.80
2015,08,16,13,47,18.80
2015,08,16,13,48,18.70
2015,08,16,13,49,18.70
2015,08,16,13,50,18.70
2015,08,16,13,51,18.70
2015,08,16,13,52,18.70
2015,08,16,13,53,18.70
2015,08,16,13,54,18.70
2015,08,16,13,55,18.70
2015,08,16,13,56,18.70
2015,08,16,13,57,18.70
2015,08,16,13,58,18.60
2015,08,16,13,59,18.50
2015,08,16,14,00,18.50
2015,08,16,14,01,18.40
2015,08,16,14,02,18.50
2015,08,16,14,03,18.50
2015,08,16,14,04,18.50
2015,08,16,14,05,18.50
2015,08,16,14,06,18.50
2015,08,16,14,07,18.50
2015,08,16,14,08,18.50
2015,08,16,14,09,18.60
2015,08,16,14,10,18.80
2015,08,16,14,11,18.80
2015,08,16,14,12,18.80
2015,08,16,14,13,18.90
2015,08,16,14,14,18.90
2015,08,16,14,15,18.90
2015,08,16,14,16,18.70
2015,08,16,14,17,18.60
2015,08,16,14,18,18.50
2015,08,16,14,19,18.60
2015,08,16,14,20,18.50
2015,08,16,14,21,18.40
2015,08,16,14,22,18.30
2015,08,16,14,23,18.30
2015,08,16,14,24,18.30
2015,08,16,14,25,18.20
2015,08,16,14,26,18.20
2015,08,16,14,27,18.20
2015,08,16,14,28,18.20
2015,08,16,14,29,18.20
2015,08,16,14,30,18.20
2015,08,16,14,31,18.20
2015,08,16,14,32,18.20
2015,08,16,14,33,18.20
2015,08,16,14,34,18.20
2015,08,16,14,35,18.20
2015,08,16,14,36,18.30
2015,08,16,14,37,18.40
2015,08,16,14,38,18.40
2015,08,16,14,39,18.40
2015,08,16,14,40,18.30
2015,08,16,14,41,18.40
2015,08,16,14,42,18.40
2015,08,16,14,43,18.30
2015,08,16,14,44,18.30
2015,08,16,14,45,18.50
2015,08,16,14,46,18.60
2015,08,16,14,47,18.60
2015,08,16,14,48,18.70
2015,08,16,14,49,18.60
2015,08,16,14,50,18.60
2015,08,16,14,51,18.50
2015,08,16,14,52,18.50
2015,08,16,14,53,18.50
2015,08,16,14,54,18.60
2015,08,16,14,55,18.60
2015,08,16,14,56,18.60
2015,08,16,14,57,18.50
2015,08,16,14,58,18.50
2015,08,16,14,59,18.40
2015,08,16,15,00,18.30
2015,08,16,15,01,18.20
2015,08,16,15,02,18.20
2015,08,16,15,03,18.20
2015,08,16,15,04,18.20
2015,08,16,15,05,18.20
2015,08,16,15,06,18.20
2015,08,16,15,07,18.30
2015,08,16,15,08,18.50
2015,08,16,15,09,18.60
2015,08,16,15,10,18.80
2015,08,16,15,11,18.80
2015,08,16,15,12,18.80
2015,08,16,15,13,18.80
2015,08,16,15,14,18.80
2015,08,16,15,15,18.80
2015,08,16,15,16,18.80
2015,08,16,15,17,18.70
2015,08,16,15,18,18.70
2015,08,16,15,19,18.80
2015,08,16,15,20,18.70
2015,08,16,15,21,18.70
2015,08,16,15,22,18.60
2015,08,16,15,23,18.60
2015,08,16,15,24,18.60
2015,08,16,15,25,18.60
2015,08,16,15,26,18.70
2015,08,16,15,27,18.70
2015,08,16,15,28,18.70
2015,08,16,15,29,18.60
2015,08,16,15,30,18.60
2015,08,16,15,31,18.60
2015,08,16,15,32,18.60
2015,08,16,15,33,18.60
2015,08,16,15,34,18.50
2015,08,16,15,35,18.50
2015,08,16,15,36,18.40
2015,08,16,15,37,18.30
2015,08,16,15,38,18.30
2015,08,16,15,39,18.30
2015,08,16,15,40,18.30
2015,08,16,15,41,18.40
2015,08,16,15,42,18.40
2015,08,16,15,43,18.40
2015,08,16,15,44,18.30
2015,08,16,15,45,18.20
2015,08,16,15,46,18.20
2015,08,16,15,47,18.20
2015,08,16,15,48,18.20
2015,08,16,15,49,18.20
2015,08,16,15,50,18.00
2015,08,16,15,51,17.90
2015,08,16,15,52,17.80
2015,08,16,15,53,17.80
2015,08,16,15,54,17.80
2015,08,16,15,55,17.80
2015,08,16,15,56,17.90
2015,08,16,15,57,17.80
2015,08,16,15,58,17.70
2015,08,16,15,59,17.70
2015,08,16,16,00,17.80
2015,08,16,16,01,17.80
2015,08,16,16,02,17.80
2015,08,16,16,03,17.90
2015,08,16,16,04,17.90
2015,08,16,16,05,17.90
2015,08,16,16,06,17.90
2015,08,16,16,07,17.90
2015,08,16,16,08,18.00
2015,08,16,16,09,18.00
2015,08,16,16,10,18.10
2015,08,16,16,11,18.20
2015,08,16,16,12,18.20
2015,08,16,16,13,18.10
2015,08,16,16,14,18.10
2015,08,16,16,15,17.90
2015,08,16,16,16,17.90
2015,08,16,16,17,17.90
2015,08,16,16,18,17.80
2015,08,16,16,19,17.70
2015,08,16,16,20,17.70
2015,08,16,16,21,17.60
2015,08,16,16,22,17.50
2015,08,16,16,23,17.40
2015,08,16,16,24,17.30
2015,08,16,16,25,17.20
2015,08,16,16,26,17.10
2015,08,16,16,27,17.00
2015,08,16,16,28,17.00
2015,08,16,16,29,16.90
2015,08,16,16,30,16.90
2015,08,16,16,31,16.80
2015,08,16,16,32,16.80
2015,08,16,16,33,16.70
2015,08,16,16,34,16.70
2015,08,16,16,35,16.70
2015,08,16,16,36,16.70
2015,08,16,16,37,16.90
2015,08,16,16,38,17.00
2015,08,16,16,39,17.10
2015,08,16,16,40,17.20
2015,08,16,16,41,17.30
2015,08,16,16,42,17.40
2015,08,16,16,43,17.50
2015,08,16,16,44,17.50
2015,08,16,16,45,17.40
2015,08,16,16,46,17.20
2015,08,16,16,47,17.00
2015,08,16,16,48,16.90
2015,08,16,16,49,16.80
2015,08,16,16,50,16.60
2015,08,16,16,51,16.50
2015,08,16,16,52,16.40
2015,08,16,16,53,16.40
2015,08,16,16,54,16.40
2015,08,16,16,55,16.50
2015,08,16,16,56,16.50
2015,08,16,16,57,16.60
2015,08,16,16,58,16.60
2015,08,16,16,59,16.60
2015,08,16,17,00,16.50
2015,08,16,17,01,16.40
2015,08,16,17,02,16.30
2015,08,16,17,03,16.20
2015,08,16,17,04,16.10
2015,08,16,17,05,16.10
2015,08,16,17,06,16.10
2015,08,16,17,07,16.10
2015,08,16,17,08,16.20
2015,08,16,17,09,16.20
2015,08,16,17,10,16.30
2015,08,16,17,11,16.40
2015,08,16,17,12,16.40
2015,08,16,17,13,16.40
2015,08,16,17,14,16.20
2015,08,16,17,15,16.20
2015,08,16,17,16,16.20
2015,08,16,17,17,16.10
2015,08,16,17,18,16.10
2015,08,16,17,19,16.10
2015,08,16,17,20,16.30
2015,08,16,17,21,16.30
2015,08,16,17,22,16.30
2015,08,16,17,23,16.20
2015,08,16,17,24,16.10
2015,08,16,17,25,15.90
2015,08,16,17,26,15.60
2015,08,16,17,27,15.40
2015,08,16,17,28,15.30
2015,08,16,17,29,15.10
2015,08,16,17,30,15.00
2015,08,16,17,31,14.90
2015,08,16,17,32,14.80
2015,08,16,17,33,14.80
2015,08,16,17,34,14.70
2015,08,16,17,35,14.70
2015,08,16,17,36,14.70
2015,08,16,17,37,14.60
2015,08,16,17,38,14.70
2015,08,16,17,39,14.80
2015,08,16,17,40,14.80
2015,08,16,17,41,14.80
2015,08,16,17,42,14.80
2015,08,16,17,43,14.70
2015,08,16,17,44,14.50
2015,08,16,17,45,14.30
2015,08,16,17,46,14.20
2015,08,16,17,47,14.10
2015,08,16,17,48,14.10
2015,08,16,17,49,14.10
2015,08,16,17,50,14.10
2015,08,16,17,51,14.20
2015,08,16,17,52,14.20
2015,08,16,17,53,14.10
2015,08,16,17,54,14.00
2015,08,16,17,55,14.00
2015,08,16,17,56,14.00
2015,08,16,17,57,13.80
2015,08,16,17,58,13.70
2015,08,16,17,59,13.60
2015,08,16,18,00,13.50
2015,08,16,18,01,13.40
2015,08,16,18,02,13.40
2015,08,16,18,03,13.50
2015,08,16,18,04,13.50
2015,08,16,18,05,13.40
2015,08,16,18,06,13.50
2015,08,16,18,07,13.60
2015,08,16,18,08,13.50
2015,08,16,18,09,13.40
2015,08,16,18,10,13.40
2015,08,16,18,11,13.40
2015,08,16,18,12,13.40
2015,08,16,18,13,13.40
2015,08,16,18,14,13.40
2015,08,16,18,15,13.30
2015,08,16,18,16,13.30
2015,08,16,18,17,13.30
2015,08,16,18,18,13.20
2015,08,16,18,19,13.20
2015,08,16,18,20,13.20
2015,08,16,18,21,13.10
2015,08,16,18,22,13.10
2015,08,16,18,23,13.00
2015,08,16,18,24,12.90
2015,08,16,18,25,12.90
2015,08,16,18,26,12.80
2015,08,16,18,27,12.80
2015,08,16,18,28,12.80
2015,08,16,18,29,12.80
2015,08,16,18,30,12.80
2015,08,16,18,31,12.80
2015,08,16,18,32,12.80
2015,08,16,18,33,12.80
2015,08,16,18,34,12.80
2015,08,16,18,35,12.80
2015,08,16,18,36,12.80
2015,08,16,18,37,12.80
2015,08,16,18,38,12.80
2015,08,16,18,39,12.80
2015,08,16,18,40,12.80
2015,08,16,18,41,12.80
2015,08,16,18,42,12.80
2015,08,16,18,43,12.80
2015,08,16,18,44,12.90
2015,08,16,18,45,12.90
2015,08,16,18,46,13.00
2015,08,16,18,47,13.00
2015,08,16,18,48,13.00
2015,08,16,18,49,13.10
2015,08,16,18,50,13.20
2015,08,16,18,51,13.20
2015,08,16,18,52,13.30
2015,08,16,18,53,13.30
2015,08,16,18,54,13.30
2015,08,16,18,55,13.30
2015,08,16,18,56,13.40
2015,08,16,18,57,13.50
2015,08,16,18,58,13.60
2015,08,16,18,59,13.60
2015,08,16,19,00,13.60
2015,08,16,19,01,13.70
2015,08,16,19,02,13.70
2015,08,16,19,03,13.70
2015,08,16,19,04,13.70
2015,08,16,19,05,13.70
2015,08,16,19,06,13.80
2015,08,16,19,07,13.80
2015,08,16,19,08,13.80
2015,08,16,19,09,13.80
2015,08,16,19,10,13.90
2015,08,16,19,11,13.90
2015,08,16,19,12,14.00
2015,08,16,19,13,14.00
2015,08,16,19,14,14.10
2015,08,16,19,15,14.20
2015,08,16,19,16,14.20
2015,08,16,19,17,14.20
2015,08,16,19,18,14.20
2015,08,16,19,19,14.30
2015,08,16,19,20,14.30
2015,08,16,19,21,14.30
2015,08,16,19,22,14.40
2015,08,16,19,23,14.40
2015,08,16,19,24,14.50
2015,08,16,19,25,14.50
2015,08,16,19,26,14.60
2015,08,16,19,27,14.60
2015,08,16,19,28,14.60
2015,08,16,19,29,14.50
2015,08,16,19,30,14.50
2015,08,16,19,31,14.50
2015,08,16,19,32,14.50
2015,08,16,19,33,14.50
2015,08,16,19,34,14.50
2015,08,16,19,35,14.50
2015,08,16,19,36,14.50
2015,08,16,19,37,14.50
2015,08,16,19,38,14.50
2015,08,16,19,39,14.50
2015,08,16,19,40,14.50
2015,08,16,19,41,14.50
2015,08,16,19,42,14.50
2015,08,16,19,43,14.50
2015,08,16,19,44,14.50
2015,08,16,19,45,14.60
2015,08,16,19,46,14.60
2015,08,16,19,47,14.60
2015,08,16,19,48,14.60
2015,08,16,19,49,14.60
2015,08,16,19,50,14.60
2015,08,16,19,51,14.60
2015,08,16,19,52,14.60
2015,08,16,19,53,14.60
2015,08,16,19,54,14.60
2015,08,16,19,55,14.60
2015,08,16,19,56,14.60
2015,08,16,19,57,14.60
2015,08,16,19,58,14.60
2015,08,16,19,59,14.60
2015,08,16,20,00,14.60
2015,08,16,20,01,14.60
2015,08,16,20,02,14.60
2015,08,16,20,03,14.60
2015,08,16,20,04,14.60
2015,08,16,20,05,14.60
2015,08,16,20,06,14.60
2015,08,16,20,07,14.60
2015,08,16,20,08,14.60
2015,08,16,20,09,14.60
2015,08,16,20,10,14.60
2015,08,16,20,11,14.60
2015,08,16,20,12,14.60
2015,08,16,20,13,14.60
